User: anonymous   Login
Location: Unspecified
(0.0000°N, 0.0000°E)
Time: 09:07:07
(UTC+00:00)
Language:

CFESAT - Orbit

View from above orbital plane
View from above orbital plane
View from above satellite
View from above satellite

Ground track
Ground track

The orbit data is extracted from the following two-line orbital elements,

1 30777U 07006F   18018.50809004 +.00002453 +00000-0 +78061-4 0  9991
2 30777 035.4256 164.5880 0004942 138.9064 221.2034 15.32426614601042
Epoch (UTC): 18 January 2018 12:11:38
Eccentricity: 0.0004942
inclination: 35.4256°
perigee height: 465 km
apogee height: 472 km
right ascension of ascending node: 164.5880°
argument of perigee: 138.9064°
revolutions per day: 15.32426614
mean anomaly at epoch: 221.2034°
orbit number at epoch: 60104

The dashed part of the orbit path shows where the satellite is in the earth's shadow,  

DLR